Sankoumaru 31 — JD2200 — position and weather

sailwx.info

Track history (hours):
 
Tides and Currents Weather Stations Pressure Air Temp Water Temp Dewpoint Dewpoint Depression Visibility Wind Speed Wind Dir Waves Ship Positions

Sankoumaru 31

Last reported at 2014-Jul-28 03:32 UTC. Time now 2014-Jul-31 07:32 UTC.
Position N 34°16' E 132°22'.

Length 75 m; draft 4.2 m.

Type: Cargo ship. MMSI: 431501842.

Date/timePositionNaut miles runAvg speedWind from/ knotsBaromVisibWave heightAir tempDewpointWater temp
2014-Jul-28 03:32N 34°16' E 132°22'7 6.5
2014-Jul-28 02:31N 34°21' E 132°27'0 0.0
2014-Jul-28 01:31N 34°21' E 132°27'0 0.0
2014-Jul-28 00:22N 34°21' E 132°27'0 0.1
2014-Jul-27 23:28N 34°21' E 132°27'0 0.0
2014-Jul-27 08:03N 34°21' E 132°27'1 2.0
2014-Jul-27 07:33N 34°21' E 132°26'330 9.2
2014-Jul-25 19:33N 34°43' E 139°06'1110.9
2014-Jul-25 18:33N 34°50' E 139°16'10 9.5
2014-Jul-25 17:28N 34°57' E 139°26'910.0
2014-Jul-25 16:33N 35°03' E 139°34'1211.9
2014-Jul-25 15:33N 35°11' E 139°45'1010.5
2014-Jul-25 14:33N 35°21' E 139°42'8 7.8
2014-Jul-25 13:33N 35°22' E 139°52'2 1.6
2014-Jul-25 12:33N 35°22' E 139°54'0 0.0
2014-Jul-25 11:33N 35°22' E 139°54'0 0.0
2014-Jul-25 10:33N 35°22' E 139°54'0 0.0
2014-Jul-25 09:24N 35°22' E 139°54'0 0.0
2014-Jul-25 08:33N 35°22' E 139°54'0 0.0
2014-Jul-25 07:33N 35°22' E 139°54'0 0.0
2014-Jul-25 06:33N 35°22' E 139°54'0 0.0
2014-Jul-25 05:30N 35°22' E 139°54'0 0.0
2014-Jul-25 04:30N 35°22' E 139°54'0 0.0
2014-Jul-25 03:24N 35°22' E 139°54'0 0.0
2014-Jul-25 02:33N 35°22' E 139°54'0 0.0
2014-Jul-25 01:33N 35°22' E 139°54'0 0.0
2014-Jul-25 00:27N 35°22' E 139°54'0 0.0
2014-Jul-24 23:33N 35°22' E 139°54'0 0.0
2014-Jul-24 22:32N 35°22' E 139°54'0 0.0
2014-Jul-24 06:31N 35°22' E 139°54'9 9.2
2014-Jul-24 05:33N 35°30' E 139°51'8 7.8
2014-Jul-24 04:33N 35°38' E 139°48'0 0.0
2014-Jul-24 03:30N 35°38' E 139°48'0 0.0
2014-Jul-24 02:30N 35°38' E 139°48'0 0.0
2014-Jul-24 01:33N 35°38' E 139°48'0 0.0
2014-Jul-24 00:30N 35°38' E 139°48'0 0.0
2014-Jul-23 23:30N 35°38' E 139°48'3 0.1
2014-Jul-23 03:33N 35°36' E 139°51'5 5.2
2014-Jul-23 02:33N 35°36' E 139°57'6 6.4
2014-Jul-23 01:33N 35°37' E 140°05'0 0.0
2014-Jul-23 00:30N 35°37' E 140°05'0 0.0
2014-Jul-22 23:33N 35°37' E 140°05'1 0.0
2014-Jul-22 03:33N 35°36' E 140°05'2 2.2
2014-Jul-22 02:26N 35°35' E 140°03'0 0.0
2014-Jul-22 01:32N 35°35' E 140°03'8 7.9
2014-Jul-22 00:33N 35°41' E 139°57'0 0.0
2014-Jul-21 23:33N 35°41' E 139°57'0 0.0
2014-Jul-21 22:33N 35°41' E 139°57'0 0.0
2014-Jul-21 21:33N 35°41' E 139°57'0 0.0
2014-Jul-21 20:33N 35°41' E 139°57'0 0.0
2014-Jul-21 20:18N 35°41' E 139°57'0 0.0
2014-Jul-21 19:33N 35°41' E 139°57'0 0.0
2014-Jul-21 18:33N 35°41' E 139°57'0 0.0
2014-Jul-21 17:33N 35°41' E 139°57'0 0.0
2014-Jul-21 16:33N 35°41' E 139°57'0 0.0
2014-Jul-21 15:33N 35°41' E 139°57'0 0.0
2014-Jul-21 14:33N 35°41' E 139°57'0 0.0
2014-Jul-21 13:33N 35°41' E 139°57'0 0.0
2014-Jul-21 12:33N 35°41' E 139°57'0 0.0
2014-Jul-21 11:33N 35°41' E 139°57'0 0.0
2014-Jul-21 10:33N 35°41' E 139°57'0 0.0
2014-Jul-21 09:33N 35°41' E 139°57'0 0.0
2014-Jul-21 08:33N 35°41' E 139°57'8 8.5
2014-Jul-21 07:33N 35°33' E 139°54'1111.4
2014-Jul-21 06:33N 35°24' E 139°46'1010.2
2014-Jul-21 05:33N 35°13' E 139°47'1211.6
2014-Jul-21 04:33N 35°02' E 139°44'17 7.4
2014-Jul-21 02:17N 34°57' E 140°03'912.2
2014-Jul-21 01:33N 35°02' E 140°12'  
Track history (hours):
 
Tides and Currents Weather Stations Pressure Air Temp Water Temp Dewpoint Dewpoint Depression Visibility Wind Speed Wind Dir Waves Ship Positions

Sankoumaru 31

Last reported at 2014-Jul-28 03:32 UTC. Time now 2014-Jul-31 07:32 UTC.
Position N 34°16' E 132°22'.

Length 75 m; draft 4.2 m.

Type: Cargo ship. MMSI: 431501842.

Date/timePositionNaut miles runAvg speedWind from/ knotsBaromVisibWave heightAir tempDewpointWater temp
2014-Jul-28 03:32N 34°16' E 132°22'7 6.5
2014-Jul-28 02:31N 34°21' E 132°27'0 0.0
2014-Jul-28 01:31N 34°21' E 132°27'0 0.0
2014-Jul-28 00:22N 34°21' E 132°27'0 0.1
2014-Jul-27 23:28N 34°21' E 132°27'0 0.0
2014-Jul-27 08:03N 34°21' E 132°27'1 2.0
2014-Jul-27 07:33N 34°21' E 132°26'330 9.2
2014-Jul-25 19:33N 34°43' E 139°06'1110.9
2014-Jul-25 18:33N 34°50' E 139°16'10 9.5
2014-Jul-25 17:28N 34°57' E 139°26'910.0
2014-Jul-25 16:33N 35°03' E 139°34'1211.9
2014-Jul-25 15:33N 35°11' E 139°45'1010.5
2014-Jul-25 14:33N 35°21' E 139°42'8 7.8
2014-Jul-25 13:33N 35°22' E 139°52'2 1.6
2014-Jul-25 12:33N 35°22' E 139°54'0 0.0
2014-Jul-25 11:33N 35°22' E 139°54'0 0.0
2014-Jul-25 10:33N 35°22' E 139°54'0 0.0
2014-Jul-25 09:24N 35°22' E 139°54'0 0.0
2014-Jul-25 08:33N 35°22' E 139°54'0 0.0
2014-Jul-25 07:33N 35°22' E 139°54'0 0.0
2014-Jul-25 06:33N 35°22' E 139°54'0 0.0
2014-Jul-25 05:30N 35°22' E 139°54'0 0.0
2014-Jul-25 04:30N 35°22' E 139°54'0 0.0
2014-Jul-25 03:24N 35°22' E 139°54'0 0.0
2014-Jul-25 02:33N 35°22' E 139°54'0 0.0
2014-Jul-25 01:33N 35°22' E 139°54'0 0.0
2014-Jul-25 00:27N 35°22' E 139°54'0 0.0
2014-Jul-24 23:33N 35°22' E 139°54'0 0.0
2014-Jul-24 22:32N 35°22' E 139°54'0 0.0
2014-Jul-24 06:31N 35°22' E 139°54'9 9.2
2014-Jul-24 05:33N 35°30' E 139°51'8 7.8
2014-Jul-24 04:33N 35°38' E 139°48'0 0.0
2014-Jul-24 03:30N 35°38' E 139°48'0 0.0
2014-Jul-24 02:30N 35°38' E 139°48'0 0.0
2014-Jul-24 01:33N 35°38' E 139°48'0 0.0
2014-Jul-24 00:30N 35°38' E 139°48'0 0.0
2014-Jul-23 23:30N 35°38' E 139°48'3 0.1
2014-Jul-23 03:33N 35°36' E 139°51'5 5.2
2014-Jul-23 02:33N 35°36' E 139°57'6 6.4
2014-Jul-23 01:33N 35°37' E 140°05'0 0.0
2014-Jul-23 00:30N 35°37' E 140°05'0 0.0
2014-Jul-22 23:33N 35°37' E 140°05'1 0.0
2014-Jul-22 03:33N 35°36' E 140°05'2 2.2
2014-Jul-22 02:26N 35°35' E 140°03'0 0.0
2014-Jul-22 01:32N 35°35' E 140°03'8 7.9
2014-Jul-22 00:33N 35°41' E 139°57'0 0.0
2014-Jul-21 23:33N 35°41' E 139°57'0 0.0
2014-Jul-21 22:33N 35°41' E 139°57'0 0.0
2014-Jul-21 21:33N 35°41' E 139°57'0 0.0
2014-Jul-21 20:33N 35°41' E 139°57'0 0.0
2014-Jul-21 20:18N 35°41' E 139°57'0 0.0
2014-Jul-21 19:33N 35°41' E 139°57'0 0.0
2014-Jul-21 18:33N 35°41' E 139°57'0 0.0
2014-Jul-21 17:33N 35°41' E 139°57'0 0.0
2014-Jul-21 16:33N 35°41' E 139°57'0 0.0
2014-Jul-21 15:33N 35°41' E 139°57'0 0.0
2014-Jul-21 14:33N 35°41' E 139°57'0 0.0
2014-Jul-21 13:33N 35°41' E 139°57'0 0.0
2014-Jul-21 12:33N 35°41' E 139°57'0 0.0
2014-Jul-21 11:33N 35°41' E 139°57'0 0.0
2014-Jul-21 10:33N 35°41' E 139°57'0 0.0
2014-Jul-21 09:33N 35°41' E 139°57'0 0.0
2014-Jul-21 08:33N 35°41' E 139°57'8 8.5
2014-Jul-21 07:33N 35°33' E 139°54'1111.4
2014-Jul-21 06:33N 35°24' E 139°46'1010.2
2014-Jul-21 05:33N 35°13' E 139°47'1211.6
2014-Jul-21 04:33N 35°02' E 139°44'17 7.4
2014-Jul-21 02:17N 34°57' E 140°03'912.2
2014-Jul-21 01:33N 35°02' E 140°12'  

Dump ship's entire track history